Change the Weather History Date:

Thursday, March 7, 2013

  Actual Average Record
Temperature  
Mean Temperature 60 °F -  
Max Temperature 79 °F 68 °F 88 °F (1972)
Min Temperature 42 °F 35 °F 22 °F (1967)
Degree Days  
Heating Degree Days 4    
Growing Degree Days 10 (Base 50)    
Moisture  
Dew Point 18 °F    
Average Humidity 22    
Maximum Humidity 41    
Minimum Humidity 8    
Precipitation  
Precipitation 0.00 in - - ()
Sea Level Pressure  
Sea Level Pressure 29.84 in    
Wind  
Wind Speed 5 mph (NW)    
Max Wind Speed 13 mph    
Max Gust Speed 21 mph    
Visibility 10 miles    
Events      
Averages and records for this station are not official NWS values.
T = Trace of Precipitation, MM = Missing Value Source: NWS Daily Summary

Daily Weather History Graph

Daily Weather History Graph

Search for Another Location

Airport or City:

Trip Planner

Search our weather history database for the weather conditions in past years. The results will help you decide how hot, cold, wet, or windy it might be!

Date:

Astronomy

Mar. 07, 2013 Rise Set
Actual Time 6:38 AM MST 6:20 PM MST
Civil Twilight 6:14 AM MST 6:45 PM MST
Nautical Twilight 5:45 AM MST 7:13 PM MST
Astronomical Twilight 5:16 AM MST 7:42 PM MST
Moon 3:29 AM MST (3/7) 2:22 PM MST (3/7)
Length of Visible Light 12h 31m
Length of Day
11h 42m
Waning Crescent, 19% of the Moon is Illuminated
Mar 7
Waning Crescent
Mar 11
New
Mar 19
First Quarter
Mar 27
Full
Apr 2
Last Quarter

Hourly Weather History & Observations

Time (MST) Temp. Windchill Dew Point Humidity Pressure Visibility Wind Dir Wind Speed Gust Speed Precip Events Conditions
12:51 AM 52.0 °F - 21.0 °F 30% 29.86 in 10.0 mi ESE 3.5 mph - N/A   Clear
1:51 AM 46.9 °F - 19.9 °F 34% 29.86 in 10.0 mi East 5.8 mph - N/A   Clear
2:51 AM 48.0 °F - 21.0 °F 34% 29.84 in 10.0 mi Calm Calm - N/A   Clear
3:51 AM 46.0 °F 42.5 °F 21.0 °F 37% 29.83 in 10.0 mi ENE 6.9 mph - N/A   Clear
4:51 AM 44.1 °F - 19.9 °F 38% 29.85 in 10.0 mi Calm Calm - N/A   Clear
5:51 AM 43.0 °F 40.3 °F 19.9 °F 40% 29.87 in 10.0 mi SE 4.6 mph - N/A   Clear
6:51 AM 42.1 °F 37.7 °F 19.9 °F 41% 29.90 in 10.0 mi East 6.9 mph - N/A   Clear
7:51 AM 48.9 °F - 21.9 °F 35% 29.92 in 10.0 mi NNW 3.5 mph - N/A   Clear
8:51 AM 57.0 °F - 24.1 °F 28% 29.92 in 10.0 mi Calm Calm - N/A   Clear
9:51 AM 66.9 °F - 24.1 °F 20% 29.89 in 10.0 mi East 10.4 mph - N/A   Clear
10:51 AM 71.1 °F - 24.1 °F 17% 29.87 in 10.0 mi ESE 8.1 mph - N/A   Clear
11:51 AM 73.9 °F - 21.0 °F 14% 29.86 in 10.0 mi SW 5.8 mph - N/A   Clear
12:51 PM 77.0 °F - 17.1 °F 10% 29.82 in 10.0 mi West 10.4 mph - N/A   Clear
1:51 PM 75.9 °F - 14.0 °F 10% 29.81 in 10.0 mi Variable 3.5 mph - N/A   Clear
2:51 PM 79.0 °F - 15.1 °F 9% 29.78 in 10.0 mi WNW 10.4 mph - N/A   Clear
3:51 PM 79.0 °F - 12.0 °F 8% 29.77 in 10.0 mi WSW 12.7 mph 16.1 mph N/A   Clear
4:51 PM 77.0 °F - 12.0 °F 8% 29.77 in 10.0 mi NW 4.6 mph - N/A   Clear
5:51 PM 75.0 °F - 12.0 °F 9% 29.78 in 10.0 mi SW 9.2 mph 20.7 mph N/A   Clear
6:51 PM 70.0 °F - 10.9 °F 10% 29.81 in 10.0 mi West 12.7 mph - N/A   Clear
7:51 PM 66.0 °F - 10.9 °F 12% 29.83 in 10.0 mi NW 9.2 mph - N/A   Clear
8:51 PM 62.1 °F - 17.1 °F 18% 29.84 in 10.0 mi NW 11.5 mph - N/A   Partly Cloudy
9:51 PM 57.9 °F - 18.0 °F 21% 29.85 in 10.0 mi NW 5.8 mph - N/A   Clear
10:51 PM 55.9 °F - 19.0 °F 24% 29.84 in 10.0 mi NW 3.5 mph - N/A   Clear
11:51 PM 54.0 °F - 19.0 °F 25% 29.83 in 10.0 mi SE 8.1 mph - N/A   Clear